Kitsissorsuit

KL  EN  DA
ASIAQ
Weather Now GREENLAND SURVEY
Updated [WGT/WGST] Temperature [°C] Wind [m/s] Air pressure [hPa] Relative humidity [%] Precipitation [mm]
Present Wind chill Speed Max
17.01 13:00-16,60,0n/an/a100485n/a
17.01 12:00-16,70,0n/an/a100485n/a
17.01 11:00-15,40,0n/an/a100486n/a
17.01 10:00-15,90,0n/an/a100486n/a
17.01 09:00-16,0-21,32,1 ⇓4,1100486n/a
17.01 08:00-16,2-21,52,1 ⇓4,1100585n/a
17.01 07:00-16,1-22,22,6 ⇓3,6100586n/a
17.01 06:00-15,4-22,13,1 ⇓3,6100588n/a
17.01 05:00-15,9-22,73,1 ⇘4,1100686n/a
17.01 04:00-14,9-21,53,1 ⇘4,1100686n/a
17.01 03:00-14,6-21,83,6 ⇘4,6100787n/a
17.01 02:00-12,9-18,42,6 ⇓3,1100790n/a
17.01 01:00-11,2-16,42,6 ⇓3,1100778n/a
17.01 00:00-11,7-18,84,1 ⇓5,1100891n/a
16.01 23:00-11,6-19,55,1 ⇓6,2100890n/a
16.01 22:00-11,3-19,65,7 ⇓6,2100993n/a
16.01 21:00-10,0-18,36,2 ⇓7,7101086n/a
16.01 20:00n/an/an/an/an/an/an/a
16.01 19:00-8,4-15,55,1 ⇓6,2101188n/a
16.01 18:00-7,9-14,14,1 ⇙5,1101185n/a
16.01 17:00-8,2-12,92,6 ⇙4,1101186n/a
16.01 16:00-8,3-15,45,1 ⇙5,7101188n/a
16.01 15:00-8,5-15,24,6 ⇙5,1101189n/a
16.01 14:00-8,2-13,53,1 ⇙3,6101181n/a
16.01 13:00-8,50,01,0 ⇙2,1101181n/a
Position: (74.0605555555,-57.723055555555)

[Back]